Retour au catalogue

CZ-6A DEB

ActifPO
NORAD 61452·DEBRIS·🇨🇳 China

Lancé Aug 6, 2024 depuis Taiyuan Satellite Launch Center

Loading…

Prochains Passages (prochaines 24 heures)

TLE

FraisSource: Space-Track

Époque: Sep 12, 2026, 22:59 UTC

1 61452U 24140ZJ  26255.95812828  .00003065  00000-0  78297-3 0  9992
2 61452  88.8942 251.3859 0055891 283.2695  76.2282 14.49359403107631

Suivez CZ-6A DEB en temps réel avec AllMySat

Download on the App Store